Weather in Nyiregyhaza

Hungary     47°57′32″N   21°42′40″E
temp.,
°C
wind,
m/s
gust,
m/s
humid.,
%
clouds,
%
prec.,
mm/h
press.,
hPa
HPBL,
m
14 may, fri
fri1423:00+12s4896100 0.7 1003291
02:00+12ssw5897100 1.4 1004347
05:00+11ssw5995100 0.2 1004379
08:00+11sw6991100 0.2 1005451
11:00+13sw7877100 0.2 1006992
14:00+12wsw61081100 0.3 1008816
17:00+12sw5986100 0.1 1008537
20:00+11sw4887100 0.1 1008410
15 may, sat
sat1523:00+10sw369399 0.0 1010239
02:00+10w1192100 0.0 101024
05:00+10s1190100 0.0 101015
08:00+12sse228395 0.0 1012313
11:00+13sse227592 0.0 1012546
14:00+18ese116210 0.0 1011982
17:00+18se1158100 0.0 10101052
20:00+14ne11735 0.0 100911
16 may, sun
sun1623:00+12e22828 0.0 100913
02:00+12ese2284100 0.0 100928
05:00+12ssw1189100 0.1 100812
08:00+13se2392100 0.9 1009147
11:00+15ssw5786100 1.0 1009685
14:00+16ssw6982100 4.5 1008682
17:00+16ssw68807 2.4 1007679
20:00+13ssw49924 3.8 1008198
17 may, mon
mon1723:00+11sw35940 0.0 100992
02:00+9sw33920 0.0 100936
05:00+8sw229220 0.0 101015
08:00+13ssw1278100 0.0 1010262
11:00+16sw2369100 0.0 1009805
14:00+15w1379100 0.0 1009383
17:00+14nw0189100 0.9 1008215
20:00+13wnw129586 1.1 100935
18 may, tue
tue1823:00+10w229589 0.0 100926
02:00+9nw229586 0.0 100922
05:00+9e009690 0.0 101010
08:00+13nw1286100 0.1 1011297
11:00+14nne2378100 0.1 1011424
14:00+14w2281100 0.8 1011104
17:00+14wsw1183100 0.3 101053
20:00+12nnw118497 0.6 101111